Preview of NWS' New Version of Forecast
This preview is not operational and should not be used for support decisions.

Regional Weather Roundup (RWR)

Issued by National Weather Service (NWS)

                            
000
ASPQ40 PGUM 170510
RWRPQ 
WEATHER ROUNDUP FOR THE MARIANAS AND MICRONESIA
NATIONAL WEATHER SERVICE TIYAN GU
300 PM CHST MON JUN 17 2019

GUZ001>004-170600-
MARIANA ISLANDS-
  
CITY           SKY/WX    TMP DP  RH WIND       PRES   REMARKS
GUAM AIRPORT   MOSUNNY   90  73  58 E14       29.86F HX  98           
ANDERSEN AFB   PTSUNNY   88  75  66 E13       29.87F HX  97           
ROTA AIRPORT   MOSUNNY   86  72  62 E16       29.85F HX  92           
TINIAN AP      MOSUNNY   91  77  62 E16       29.84S HX 105           
SAIPAN AP      MOSUNNY   90  75  62 E13       29.86S HX 100           

$$

PMZ161-170600-
REPUBLIC OF PALAU-
  
CITY           SKY/WX    TMP DP  RH WIND       PRES   REMARKS
KOROR AP       PTSUNNY   84  75  74 NE12      29.82F HX  92           
KOROR WSO      NOT AVBL                                               

$$

PMZ171>174-170600-
FEDERATED STATES OF MICRONESIA-
  
CITY           SKY/WX    TMP DP  RH WIND       PRES   REMARKS
YAP AIRPORT    PTSUNNY   90  79  70 NE8       29.79F HX 105           
CHUUK AP       MOSUNNY   88  79  74 NE8       29.76F HX 102           
POHNPEI AP     NOT AVBL                                               
POHNPEI WSO    CLOUDY    82  75  78 NE5       29.79F                  
KOSRAE AP      NOT AVBL                                               

$$

PMZ181-170600-
REPUBLIC OF THE MARSHALL ISLANDS-
  
CITY           SKY/WX    TMP DP  RH WIND       PRES   REMARKS
KWAJALEIN AP   SUNNY     86  75  70 E10       29.78S HX  95           
MAJURO AP      PTSUNNY   84  77  79 NE16      29.76R HX  94           
MAJURO WSO     PTSUNNY   84  77  79 E12       29.74S HX  94           

$$